Location: Mount Wilson Observatory
(34.2257°N, 118.0571°W)
Time: 09:30:47
(UTC-08:00)

ATLAS 3B CENTAUR R/B - Visible Passes

Search period start: 19 December 2014 00:00
Search period end: 29 December 2014 00:00
Orbit: 229 x 8164 km, 28.1° (Epoch: 18 December)

Date Brightness Start Highest point End Pass type
(mag) Time Alt. Az. Time Alt. Az. Time Alt. Az.
19 Dec 5.1 03:09:46 11° SE 03:11:12 11° SE 03:13:41 10° ESE visible
19 Dec 4.8 06:12:17 10° WSW 06:20:40 64° SSE 06:51:49 10° E visible
20 Dec 5.0 03:12:19 13° SE 03:13:16 13° SE 03:16:54 10° ESE visible
20 Dec 4.8 06:14:37 10° WSW 06:22:56 66° SSE 06:53:53 10° E visible
21 Dec 4.9 03:14:28 14° SE 03:14:58 14° SE 03:19:21 10° E visible
21 Dec 4.7 06:16:35 10° WSW 06:24:47 67° SSE 06:55:27 10° E visible
22 Dec 4.8 03:16:13 16° SE 03:16:17 16° SE 03:21:13 10° E visible
22 Dec 4.7 06:18:08 10° WSW 06:26:15 67° S 06:56:33 10° E visible
23 Dec 4.7 03:17:34 17° SE 03:17:34 17° SE 03:22:33 10° E visible
23 Dec 4.7 06:19:18 10° WSW 06:27:18 68° S 06:57:09 10° E visible
24 Dec 4.7 03:18:31 18° SE 03:18:31 18° SE 03:23:22 10° E visible
24 Dec 4.6 06:20:04 10° WSW 06:27:57 68° S 06:57:16 10° E visible
25 Dec 4.6 03:19:03 19° ESE 03:19:03 19° ESE 03:23:43 10° E visible
25 Dec 4.6 06:20:27 10° WSW 06:28:12 67° S 06:56:55 10° E visible
26 Dec 4.6 03:19:12 19° ESE 03:19:12 19° ESE 03:23:36 10° E visible
26 Dec 4.6 06:20:26 10° WSW 06:28:02 67° S 06:56:05 10° E visible
27 Dec 4.6 03:18:58 19° ESE 03:18:58 19° ESE 03:23:02 10° E visible
27 Dec 4.5 06:20:01 10° WSW 06:27:28 66° S 06:54:47 10° ESE visible
28 Dec 4.6 03:18:20 19° ESE 03:18:20 19° ESE 03:22:02 10° E visible
28 Dec 4.5 06:19:12 10° WSW 06:26:30 65° S 06:53:01 10° ESE visible
